Location: ?????
(33.6267°N, 35.4675°E)
Time: 16:28:42
(UTC+00:00)

H-II Stage 2 - Pass Details

Date: 12 November 2019
Orbit: 306 x 28218 km, 28.6° (Epoch: 05 December)

Event Time Altitude Azimuth Distance (km) Brightness Sun altitude
Rises 15:30:58 0° 245° (WSW) 26,042 12.2 -11.5°
Reaches altitude 10° 16:34:08 10° 249° (WSW) 13,995 9.9 -24.4°
Maximum altitude 17:10:12 58° 179° (S) 1,900 4.3 -31.9°
Enters shadow 17:11:18 54° 149° (SSE) 1,727 4.0 -32.1°
